Location: Buffign�court
(47.8126°N, 6.0176°E)
Time: 15:08:33
(UTC+00:00)

Cosmos 1812 Rocket - Pass Details

Date: 16 June 2021
Orbit: 606 x 631 km, 82.5° (Epoch: 04 August)

Event Time Altitude Azimuth Distance (km) Brightness Sun altitude
Rises 23:20:00 0° 355° (N) 2,879 8.7 -18.7°
Reaches altitude 10° 23:22:18 10° 2° (N) 1,972 7.4 -18.7°
Maximum altitude 23:26:30 46° 76° (ENE) 828 4.2 -18.8°
Enters shadow 23:28:14 30° 130° (SE) 1,105 4.5 -18.8°
